User: anonymous   Login
Location: Caltech
(34.1382°N, 118.1253°W)
Time: 07:01:23
(UTC-07:00)
Language:

Lacrosse 5 - Orbit

View from above orbital plane
View from above orbital plane
View from above satellite
View from above satellite

Ground track
Ground track

The orbit data is extracted from the following two-line orbital elements,

1 28646U 05016A   18169.91894402 0.00000000  00000-0  00000-0 0    03
2 28646  57.0060 197.9764 0005000  80.9445 279.0555 14.51906582    08
Epoch (UTC): 18 June 2018 22:03:16
Eccentricity: 0.0005000
inclination: 57.0060°
perigee height: 716 km
apogee height: 723 km
right ascension of ascending node: 197.9764°
argument of perigee: 80.9445°
revolutions per day: 14.51906582
mean anomaly at epoch: 279.0555°
orbit number at epoch: 0

The dashed part of the orbit path shows where the satellite is in the earth's shadow,  

DLR